Regional Weather Roundup
Issued by NWS

Home | Current Version | Previous Version | Graphics & Text | Print | Product List | Glossary On
Versions: 1 2 3 4 5 6 7 8 9 10 11 12 13 14 15 16 17 18 19 20 21 22 23 24 25 26 27 28 29 30 31 32 33 34 35 36 37 38 39 40 41 42 43 44 45 46 47 48 49 50
000
ASUS43 KLMK 291002
RWRKY
KENTUCKY REGIONAL WEATHER ROUNDUP
NATIONAL WEATHER SERVICE LOUISVILLE KY
600 AM EDT SUN MAR 29 2015

NOTE "FAIR" INDICATES FEW OR NO CLOUDS BELOW 12,000 FEET
WITH NO SIGNIFICANT WEATHER AND/OR OBSTRUCTIONS TO VISIBILITY.

KYZ001>023-026-027-061>063-070>075-291100-
WESTERN AND SOUTH CENTRAL KENTUCKY

CITY           SKY/WX    TMP DP  RH WIND       PRES   REMARKS
PADUCAH        CLEAR     32  19  58 SE8       30.26F WCI  25
HENDERSON      CLEAR     19  19 100 SE7       30.30S WCI  10
OWENSBORO      CLEAR     28  20  72 SE7       30.31F WCI  21
HOPKINSVILLE   CLEAR     28  18  66 SE5       30.30F WCI  23
BOWLING GREEN  CLEAR     24  19  81 CALM      30.33F
GLASGOW        NOT AVBL
$$

KYZ024-025-028>034-038-045-046-053-291100-
NORTH CENTRAL KENTUCKY

CITY           SKY/WX    TMP DP  RH WIND       PRES   REMARKS
LOUISVILLE/SDF CLEAR     27  16  63 SE5       30.34F WCI  22
LOUISVILLE/LOU CLEAR     29  14  53 CALM      30.34F
FORT KNOX      CLEAR     25  15  67 E5        30.30F WCI  19
$$

KYZ035>037-039>044-047>052-055>060-089>105-291100-
NORTHEAST KENTUCKY

CITY           SKY/WX    TMP DP  RH WIND       PRES   REMARKS
LEXINGTON      CLEAR     24  13  62 SE7       30.35R WCI  16
COVINGTON      CLEAR     22  13  68 S6        30.33S WCI  14
FRANKFORT      CLEAR     20  14  77 SE3       30.34R
$$

KYZ054-064>069-076>088-106>120-291100-
SOUTHEAST KENTUCKY

CITY           SKY/WX    TMP DP  RH WIND       PRES   REMARKS
JACKSON        CLEAR     25   9  50 SE3       30.34R
LONDON         CLEAR     22  15  75 CALM      30.34S
SOMERSET       NOT AVBL
MIDDLESBORO    NOT AVBL
MONTICELLO     SUNNY     16  14  91 CALM      30.37S
$$



USA.gov is the U.S. government's official web portal to all federal, state and local government web resources and services.